GFSCGP_700_temp_003.txt.gz
Temp
6 8 7 6 5 5 6 7 8 8 6 6 6 7 8 8 8 7 6 5 5 5 4 3 5 4 4 4 4 3 3 3 2 2 2 1 1 0 -1 -1 -1 -2 -2 -2
7 7 6 7 5 6 7 7 8 7 7 6 7 8 8 7 7 6 5 5 5 5 5 5 4 4 4 4 3 3 3 2 2 1 1 0 -1 -1 -2 -2 -2 -3 -3 -3
7 5 6 5 6 5 7 6 6 6 6 7 7 10 9 7 7 6 5 5 4 5 4 4 4 4 3 3 3 3 2 2 2 1 -0 -0 -1 -1 -2 -3 -4 -3 -3 -3
6 5 6 5 6 4 7 6 4 5 5 8 7 10 10 8 7 6 5 4 3 4 4 4 3 3 3 3 2 1 1 0 0 -0 -0 -1 -1 -2 -3 -5 -5 -5 -5 -6
6 5 5 6 4 5 5 6 4 5 5 6 7 8 11 8 8 7 5 4 3 5 4 4 3 3 2 2 2 1 0 -0 -1 -1 -1 -2 -2 -2 -3 -4 -4 -4 -5 -7
5 6 5 4 5 5 5 5 7 6 5 7 8 7 9 9 7 6 5 4 3 3 3 3 1 1 2 1 0 -0 -1 -1 -1 -2 -2 -2 -3 -3 -3 -4 -5 -5 -6 -7
6 4 3 4 4 4 4 5 7 8 8 9 7 6 8 8 6 5 4 3 2 1 0 0 -0 -1 -1 -0 -1 -1 -1 -2 -2 -3 -3 -3 -3 -3 -4 -5 -6 -7 -8 -8
6 6 4 3 3 2 3 3 5 4 7 7 6 7 8 7 5 4 3 2 1 1 0 -0 -1 -1 -2 -1 -1 -1 -2 -2 -2 -3 -3 -3 -4 -4 -5 -6 -6 -6 -7 -8
4 6 3 3 3 3 4 4 3 2 3 2 5 7 7 7 6 4 3 3 2 1 -0 -0 -1 -2 -2 -3 -3 -2 -2 -2 -3 -4 -4 -4 -4 -6 -7 -7 -6 -7 -8 -8
1 2 3 2 2 2 2 2 3 2 2 4 7 7 7 7 7 5 4 3 1 0 0 -1 -1 -2 -3 -2 -2 -3 -2 -3 -4 -4 -5 -5 -6 -6 -7 -7 -8 -8 -8 -8
1 0 2 2 3 3 3 3 2 3 3 3 4 6 6 5 4 4 3 2 1 1 -1 -1 -2 -2 -3 -3 -2 -2 -2 -3 -4 -5 -5 -6 -6 -7 -8 -8 -8 -9 -9 -10
-0 -0 0 2 3 3 2 2 3 2 3 3 2 2 4 4 4 3 2 2 1 -0 -1 -2 -3 -3 -3 -4 -2 -2 -2 -3 -4 -5 -6 -6 -7 -8 -8 -8 -9 -10 -10 -12
-0 -0 0 4 3 2 3 3 3 2 1 0 -0 2 5 4 3 3 2 1 0 -1 -2 -2 -3 -3 -4 -4 -3 -3 -3 -4 -5 -6 -7 -7 -8 -8 -8 -9 -10 -11 -12 -12
-1 -1 -0 1 2 2 1 2 3 2 1 1 1 2 2 2 2 2 1 0 -0 -1 -2 -3 -4 -4 -3 -3 -4 -3 -4 -5 -6 -7 -7 -8 -8 -9 -9 -10 -11 -12 -13 -13
-1 -1 -1 -0 0 0 1 1 1 1 1 1 2 2 2 2 2 1 -0 -1 -2 -3 -3 -4 -4 -4 -3 -3 -4 -5 -5 -6 -7 -8 -8 -9 -9 -10 -11 -12 -12 -13 -13 -13
-2 -2 -2 -2 -2 -1 -0 -0 0 0 1 1 1 2 2 1 0 -1 -2 -2 -3 -4 -4 -3 -3 -3 -4 -4 -5 -6 -7 -8 -9 -10 -9 -10 -11 -11 -12 -12 -13 -13 -13 -14
-1 -2 -2 -3 -2 -2 -2 1 2 1 1 2 1 1 1 -0 -1 -3 -3 -3 -4 -4 -5 -3 -4 -4 -5 -5 -6 -7 -8 -9 -10 -10 -10 -11 -12 -12 -13 -13 -13 -13 -14 -14
-1 -2 -3 -3 -3 -1 2 2 1 1 1 1 0 0 -1 -2 -3 -3 -3 -4 -3 -4 -5 -4 -4 -5 -5 -6 -7 -8 -8 -9 -10 -10 -11 -12 -13 -13 -13 -14 -14 -14 -14 -14
-0 -2 -2 -2 -2 -1 -1 1 0 -1 -1 -1 -1 -2 -2 -1 -3 -2 -4 -4 -4 -4 -5 -5 -5 -5 -6 -7 -7 -8 -9 -10 -10 -11 -12 -13 -13 -13 -14 -14 -14 -14 -14 -14
-1 -1 -2 -3 -3 -2 0 -0 -1 -1 -1 -1 -2 -2 -3 -4 -4 -4 -4 -4 -5 -5 -5 -6 -6 -6 -6 -8 -8 -8 -10 -10 -11 -13 -13 -13 -13 -14 -14 -14 -14 -14 -14 -14
-2 -2 -2 -3 -3 -3 -1 -1 -1 -2 -1 -3 -3 -3 -3 -4 -4 -4 -4 -4 -4 -5 -6 -6 -6 -8 -8 -8 -9 -10 -10 -12 -12 -13 -13 -14 -14 -14 -14 -14 -14 -14 -14 -14
-2 -3 -3 -3 -3 -2 -1 -1 -3 -3 -2 -3 -3 -4 -4 -4 -4 -5 -5 -4 -5 -5 -6 -6 -7 -8 -9 -9 -10 -11 -13 -13 -13 -13 -14 -14 -14 -15 -15 -15 -14 -14 -14 -14
-4 -3 -2 -2 -2 -1 -1 -2 -3 -3 -3 -4 -4 -5 -4 -4 -5 -5 -5 -5 -6 -6 -7 -7 -8 -9 -10 -10 -11 -12 -13 -13 -13 -14 -14 -14 -15 -15 -15 -15 -14 -15 -15 -15
-4 -3 -4 -3 -3 -3 -3 -3 -3 -3 -3 -4 -4 -5 -5 -5 -5 -5 -5 -6 -6 -7 -8 -8 -9 -10 -11 -11 -12 -13 -13 -13 -14 -14 -14 -15 -15 -15 -15 -15 -15 -15 -15 -15
-4 -4 -4 -4 -4 -3 -3 -3 -4 -4 -5 -5 -5 -5 -5 -5 -5 -5 -6 -7 -8 -8 -9 -9 -10 -11 -12 -13 -13 -13 -13 -14 -14 -14 -15 -15 -15 -15 -15 -15 -15 -15 -15 -15
-4 -4 -4 -4 -4 -4 -4 -4 -5 -5 -5 -5 -6 -6 -5 -8 -6 -7 -8 -8 -9 -9 -10 -10 -11 -12 -13 -13 -13 -14 -14 -14 -14 -15 -15 -15 -15 -15 -15 -15 -15 -15 -15 -15

GFSCGP_700_temp_006.txt.gz
Temp
8 8 8 7 7 7 8 8 9 9 8 8 7 8 8 9 9 8 8 7 7 6 5 5 5 4 4 4 4 3 3 3 3 2 2 2 1 1 0 -0 -1 -0 -1 -1
8 8 7 7 7 7 8 8 8 7 7 7 8 8 9 9 8 8 6 5 5 5 5 4 4 4 4 3 3 3 2 2 2 1 1 0 -0 -0 -1 -1 -1 -2 -2 -3
8 6 8 7 7 6 7 7 6 6 6 9 8 10 10 8 7 7 6 5 5 5 4 4 4 4 4 3 3 2 2 2 1 1 0 -0 -1 -1 -1 -2 -3 -3 -5 -4
7 7 7 6 7 6 6 6 7 5 6 7 7 9 10 9 8 6 5 5 4 4 3 4 3 3 3 3 3 3 2 1 1 -0 0 0 -1 -1 -2 -2 -3 -4 -6 -6
6 6 6 6 6 5 5 6 6 6 7 7 9 9 10 9 9 8 6 5 5 5 4 4 4 3 3 3 2 2 1 1 0 -0 -1 -1 -1 -1 -2 -3 -4 -5 -5 -6
6 7 6 6 6 5 5 6 7 8 7 7 9 8 9 10 9 8 6 5 4 4 4 3 3 2 1 1 0 1 1 0 -1 -1 -2 -2 -2 -2 -3 -3 -3 -4 -4 -5
7 6 5 6 5 6 5 5 6 6 8 8 8 7 8 8 8 7 6 5 4 3 2 1 1 0 -0 0 -0 -1 -1 -1 -2 -2 -2 -3 -3 -3 -3 -4 -4 -5 -6 -7
6 7 5 4 4 4 4 4 5 4 5 5 5 7 9 8 8 7 5 5 3 2 2 1 0 -1 -1 -1 -1 -2 -2 -3 -3 -3 -3 -4 -4 -4 -4 -4 -4 -6 -7 -8
4 6 5 4 4 4 4 5 4 3 3 3 4 7 8 8 8 6 5 4 3 3 2 1 -0 -1 -2 -2 -2 -2 -2 -2 -2 -2 -3 -4 -5 -5 -5 -5 -5 -7 -8 -8
3 2 4 3 3 4 3 3 3 3 2 4 6 5 6 7 7 6 5 4 3 2 1 0 -1 -1 -2 -1 -1 -2 -3 -2 -2 -2 -3 -3 -4 -5 -5 -5 -6 -8 -8 -8
2 1 3 2 5 4 4 4 4 4 4 3 3 4 5 4 5 4 3 2 2 1 -0 -0 -1 -2 -2 -2 -2 -2 -3 -2 -2 -2 -3 -3 -4 -5 -6 -7 -7 -7 -8 -8
1 1 0 2 3 3 3 3 4 3 2 2 2 2 3 4 4 4 3 3 2 1 -1 -1 -1 -2 -2 -2 -2 -3 -2 -2 -2 -3 -3 -4 -5 -7 -7 -7 -8 -8 -9 -10
1 1 1 3 4 3 3 3 3 3 2 2 -0 2 3 3 3 3 2 2 1 -0 -1 -1 -2 -2 -3 -2 -3 -2 -3 -3 -3 -4 -5 -5 -7 -7 -8 -8 -9 -10 -10 -10
-0 -0 0 1 1 1 1 1 2 2 2 2 2 2 2 2 2 2 1 -0 -0 -1 -2 -2 -2 -2 -3 -3 -3 -3 -4 -4 -4 -5 -6 -6 -8 -8 -9 -10 -10 -10 -11 -12
-0 -1 -1 -0 -0 -0 -1 -0 1 1 1 1 1 2 2 2 2 1 0 -0 -2 -2 -2 -1 -3 -3 -3 -3 -3 -3 -4 -5 -6 -7 -8 -9 -9 -10 -10 -10 -11 -12 -13 -13
-1 -1 -1 -1 -1 -1 -1 -0 1 0 1 1 2 2 2 2 1 0 -2 -2 -2 -2 -2 -2 -3 -3 -3 -4 -4 -4 -6 -7 -8 -8 -8 -10 -10 -10 -11 -12 -12 -13 -13 -14
-1 -1 -1 -2 -1 -2 -2 1 2 1 1 1 1 1 1 0 -1 -2 -1 -2 -2 -3 -4 -4 -3 -4 -4 -4 -5 -5 -7 -7 -7 -8 -10 -10 -10 -10 -12 -12 -13 -13 -14 -14
-1 -1 -1 -2 -2 -2 1 1 2 1 1 0 0 0 -0 -1 -1 -1 -2 -3 -3 -4 -4 -4 -4 -4 -5 -5 -5 -6 -8 -8 -8 -9 -9 -9 -11 -12 -12 -13 -14 -14 -14 -14
-1 -1 -1 -2 -2 -2 -2 1 1 0 -0 -0 -2 -1 -2 -2 -2 -2 -3 -4 -4 -4 -4 -5 -5 -5 -5 -6 -6 -8 -8 -9 -9 -9 -10 -11 -12 -13 -13 -14 -14 -14 -14 -14
-0 -1 -1 -2 -2 -2 -1 -0 -1 -1 -2 -1 -2 -2 -3 -3 -3 -3 -4 -4 -4 -5 -5 -5 -5 -6 -6 -7 -7 -8 -9 -9 -11 -11 -12 -13 -13 -14 -14 -14 -14 -14 -14 -14
-2 -2 -2 -2 -3 -2 -1 -1 -2 -2 -2 -3 -3 -3 -3 -4 -4 -4 -4 -4 -5 -5 -5 -6 -6 -7 -7 -8 -9 -10 -11 -12 -12 -12 -13 -13 -14 -14 -14 -14 -14 -14 -14 -14
-2 -3 -3 -3 -3 -2 -1 -1 -2 -3 -3 -3 -3 -3 -4 -4 -4 -5 -5 -6 -6 -5 -6 -6 -7 -8 -8 -9 -10 -11 -12 -12 -13 -13 -13 -14 -14 -14 -14 -14 -15 -15 -15 -14
-4 -3 -3 -3 -2 -2 -2 -3 -3 -3 -4 -3 -4 -4 -4 -5 -5 -5 -5 -5 -6 -6 -7 -7 -8 -8 -10 -10 -11 -12 -12 -13 -13 -13 -14 -14 -14 -14 -15 -15 -15 -15 -15 -14
-4 -3 -4 -4 -2 -3 -3 -3 -4 -4 -4 -4 -4 -5 -5 -6 -6 -5 -6 -7 -7 -7 -8 -8 -9 -10 -11 -11 -12 -13 -13 -13 -13 -14 -14 -14 -14 -15 -15 -15 -15 -15 -15 -15
-4 -4 -5 -4 -3 -4 -3 -4 -4 -5 -5 -4 -5 -5 -5 -7 -5 -6 -6 -7 -7 -8 -9 -9 -10 -11 -11 -12 -13 -13 -13 -14 -14 -14 -14 -14 -15 -15 -15 -15 -15 -15 -15 -15
-4 -4 -4 -4 -4 -4 -4 -4 -5 -5 -4 -5 -6 -7 -5 -5 -6 -7 -7 -8 -8 -9 -9 -11 -12 -12 -13 -14 -14 -14 -14 -14 -14 -14 -15 -15 -15 -15 -15 -15 -15 -15 -15 -16

GFSCGP_700_temp_009.txt.gz
Temp
8 7 8 8 7 7 7 8 8 8 8 8 8 8 8 8 8 9 8 8 7 7 6 7 5 4 4 4 4 3 3 3 2 2 2 1 1 1 0 0 -0 -1 -1 -1
8 7 7 8 7 7 7 7 7 8 8 7 8 10 10 8 9 9 9 8 8 7 7 6 5 5 4 4 3 3 2 2 2 2 1 1 0 0 -0 -1 -1 -2 -2 -3
7 7 7 7 7 7 7 6 7 6 7 8 8 9 10 9 9 9 8 7 7 7 7 6 5 5 4 4 4 3 3 2 1 1 1 1 0 -0 -0 -1 -2 -3 -4 -4
6 7 7 7 6 6 7 7 7 7 6 6 7 7 9 9 9 8 7 6 6 6 6 5 5 4 4 4 3 2 2 2 1 1 -0 -1 -0 -1 -2 -2 -2 -3 -3 -4
6 7 7 7 7 6 6 5 7 7 7 7 8 8 8 8 8 7 6 5 5 4 5 4 4 4 3 2 2 2 1 1 1 1 -0 -1 -2 -2 -2 -2 -3 -3 -4 -5
6 6 7 6 6 5 5 5 7 8 8 5 6 7 8 8 8 7 5 5 5 5 4 3 3 2 2 1 1 1 0 0 0 -0 -0 -1 -2 -2 -3 -3 -4 -4 -5 -6
6 6 6 6 6 6 5 5 5 4 3 2 6 6 8 7 7 7 6 6 5 4 3 2 2 1 0 -0 0 -0 -1 -1 -1 -2 -3 -3 -4 -4 -3 -4 -4 -5 -5 -5
5 5 5 4 4 4 4 4 4 1 -0 2 5 6 7 7 6 5 4 4 4 3 2 2 1 0 -0 -0 -0 -1 -1 -1 -2 -1 -2 -2 -3 -3 -4 -4 -5 -5 -5 -6
4 5 5 4 4 4 4 4 4 3 3 2 4 6 7 6 6 6 3 3 3 2 2 0 0 -0 -0 -0 -1 -1 -1 -2 -1 -2 -2 -2 -2 -2 -3 -4 -5 -5 -5 -5
2 2 4 4 4 4 3 3 3 3 -2 0 3 4 5 6 5 5 4 3 2 2 1 1 0 -0 -1 -0 0 -2 -2 -2 -2 -2 -2 -2 -2 -3 -4 -5 -6 -5 -6 -6
2 1 4 4 4 3 3 3 3 2 2 0 -1 2 4 4 4 3 3 3 1 1 1 -0 -1 -1 -2 -2 -2 -1 -2 -2 -2 -2 -2 -2 -2 -3 -5 -6 -7 -7 -7 -7
1 1 1 4 4 3 3 2 2 2 0 1 1 1 3 4 3 2 2 1 1 1 0 -0 -0 -1 -1 -2 -1 -2 -2 -2 -2 -2 -2 -2 -3 -5 -6 -7 -8 -8 -8 -9
1 1 0 3 3 3 2 3 2 1 1 0 -0 1 2 2 2 2 2 2 1 1 0 -0 -1 -1 -1 -2 -2 -3 -2 -2 -3 -3 -3 -3 -5 -6 -7 -8 -9 -9 -9 -10
0 0 0 1 1 -0 -0 -0 1 -0 -1 -1 -1 -0 1 1 2 1 1 1 1 0 -0 -1 -1 -1 -2 -2 -3 -3 -3 -3 -3 -4 -4 -6 -7 -7 -8 -8 -9 -10 -11 -12
-0 -0 -0 -0 -1 -1 -1 -1 0 -1 -0 -1 0 -0 1 1 0 0 -0 0 1 -0 -1 -2 -2 -2 -3 -3 -3 -4 -3 -4 -5 -7 -7 -7 -7 -8 -9 -10 -11 -11 -12 -13
-0 -1 -1 -1 0 -1 -1 1 1 1 1 0 1 0 1 -0 0 -0 -0 -0 -1 -2 -2 -3 -4 -4 -4 -4 -4 -4 -5 -6 -7 -8 -8 -8 -9 -9 -10 -10 -11 -12 -13 -13
-1 -1 -1 -2 -1 -2 -1 2 1 0 0 0 -0 -1 -1 -1 -2 -2 -2 -2 -3 -3 -4 -4 -4 -4 -4 -5 -5 -6 -6 -7 -7 -8 -8 -8 -9 -10 -10 -10 -12 -13 -13 -14
-0 -0 -2 -2 -2 -3 1 1 1 -0 -0 0 0 -0 -1 -1 -2 -2 -3 -3 -3 -4 -3 -4 -4 -5 -5 -5 -6 -6 -7 -7 -9 -9 -9 -9 -10 -10 -12 -13 -13 -14 -14 -14
-0 -1 -1 -2 -3 -2 -1 -0 -1 -1 -1 -1 -1 -2 -2 -2 -2 -2 -3 -4 -4 -4 -5 -5 -5 -5 -6 -6 -7 -7 -8 -8 -9 -9 -10 -10 -11 -13 -13 -14 -14 -14 -14 -14
-1 -1 -1 -2 -3 -4 -1 -1 -2 -2 -2 -2 -3 -3 -3 -3 -4 -4 -4 -5 -5 -6 -6 -5 -6 -7 -7 -8 -8 -8 -9 -10 -10 -11 -12 -12 -13 -13 -14 -14 -14 -14 -15 -15
-2 -2 -2 -1 -4 -3 -0 -2 -2 -3 -3 -4 -3 -4 -4 -4 -5 -4 -5 -5 -5 -5 -5 -6 -7 -7 -7 -8 -8 -10 -11 -11 -12 -12 -13 -13 -14 -14 -14 -14 -15 -15 -15 -15
-2 -2 -3 -3 -4 -3 -1 -1 -3 -4 -4 -4 -4 -4 -4 -4 -4 -4 -7 -6 -6 -6 -6 -6 -6 -7 -8 -8 -10 -11 -11 -12 -13 -13 -14 -14 -14 -14 -14 -15 -15 -15 -15 -15
-3 -2 -2 -3 -2 -2 -2 -3 -3 -4 -4 -4 -4 -5 -4 -5 -5 -6 -8 -7 -7 -7 -7 -7 -7 -8 -9 -10 -11 -11 -12 -13 -14 -14 -14 -14 -14 -14 -15 -15 -15 -15 -15 -15
-4 -3 -3 -4 -2 -2 -3 -3 -4 -4 -5 -4 -4 -4 -5 -5 -7 -8 -7 -7 -7 -7 -7 -8 -8 -9 -10 -11 -12 -13 -14 -14 -14 -14 -14 -14 -15 -15 -15 -15 -15 -16 -16 -15
-4 -4 -3 -4 -4 -4 -4 -4 -5 -5 -5 -4 -4 -5 -5 -7 -9 -8 -8 -7 -8 -8 -9 -10 -10 -12 -12 -12 -13 -14 -14 -14 -14 -14 -14 -15 -15 -15 -15 -16 -16 -16 -16 -16
-4 -4 -4 -4 -4 -5 -5 -5 -5 -5 -5 -5 -5 -6 -7 -8 -9 -8 -8 -8 -9 -10 -11 -11 -12 -12 -13 -14 -14 -15 -15 -15 -15 -15 -15 -15 -15 -15 -16 -16 -16 -16 -16 -16

GFSCGP_700_temp_012.txt.gz
Temp
7 7 7 7 7 7 7 7 7 7 8 8 8 8 9 8 8 8 8 8 8 7 7 6 6 6 5 5 4 3 3 3 3 2 2 1 1 1 0 -1 -1 -1 -1 -1
7 7 7 7 6 6 7 7 7 7 7 7 8 9 10 10 8 8 8 8 7 7 7 7 6 5 5 5 4 4 4 3 2 2 1 1 1 1 1 -0 -1 -2 -2 -3
7 7 7 7 7 7 6 6 6 6 7 7 7 8 8 8 8 8 8 8 7 7 7 6 5 4 4 4 4 4 3 2 2 1 1 1 1 1 0 -1 -1 -2 -3 -3
7 7 6 7 6 6 6 6 6 6 6 6 6 6 8 8 8 7 7 7 7 6 5 4 4 4 3 3 3 2 2 2 1 1 1 0 0 -0 -0 -1 -2 -2 -3 -4
6 6 6 6 5 5 5 6 6 7 7 6 6 6 7 7 7 7 6 6 5 4 4 4 3 2 2 2 1 1 1 1 1 0 -0 -0 0 -0 -1 -1 -1 -2 -3 -4
6 6 6 5 5 5 4 5 6 7 7 5 5 5 6 6 6 5 5 4 4 4 3 2 2 2 1 1 2 2 1 1 -0 -1 -1 -0 -1 -1 -1 -1 -2 -3 -3 -4
5 5 5 5 5 5 5 5 4 4 2 2 6 6 4 5 5 5 5 4 3 3 2 2 2 1 1 1 1 1 -1 -2 -2 -3 -2 -1 -1 -1 -2 -2 -3 -4 -4 -4
4 5 4 4 4 3 4 4 3 1 -1 2 5 5 5 6 5 4 3 3 3 3 2 2 1 1 1 1 -1 -2 -2 -2 -2 -2 -2 -2 -1 -2 -2 -3 -3 -4 -4 -5
4 4 4 4 4 4 3 3 3 3 2 1 4 5 6 5 6 5 4 3 3 2 1 1 1 1 -0 -1 -1 -2 -2 -2 -2 -1 -2 -2 -2 -2 -3 -3 -3 -3 -5 -6
3 3 4 4 4 3 3 3 3 2 -2 0 2 3 4 5 5 4 3 2 2 2 2 1 1 1 0 -1 -2 -2 -2 -2 -1 -2 -2 -2 -2 -3 -3 -3 -4 -6 -7 -7
2 2 4 4 3 3 3 2 2 1 2 -1 -2 1 3 3 2 2 2 2 2 2 1 1 1 -0 -1 -1 -1 -2 -2 -2 -2 -2 -2 -3 -3 -3 -4 -5 -6 -7 -8 -8
1 1 1 3 3 3 2 3 1 -1 -0 -1 -1 -0 2 1 2 0 1 0 1 1 1 1 -0 -1 -1 -1 -1 -2 -2 -2 -2 -3 -3 -3 -3 -4 -6 -7 -8 -8 -9 -9
1 1 1 3 2 3 2 3 1 -1 -2 -2 -2 0 2 1 0 -0 -0 0 0 0 -0 -0 -1 -1 -1 -2 -2 -2 -2 -3 -3 -3 -3 -4 -4 -6 -7 -8 -8 -9 -10 -10
0 0 1 0 0 -1 -0 2 0 -1 -2 -1 -1 -1 1 -1 -1 -1 -1 -1 -1 -1 -1 -1 -1 -1 -3 -3 -3 -3 -3 -3 -4 -4 -4 -5 -6 -8 -8 -8 -9 -9 -10 -11
-0 -1 -0 -0 -1 -1 -0 -0 0 -0 0 -2 1 -1 -1 -0 -1 -1 -1 -2 -2 -2 -2 -2 -3 -2 -3 -3 -3 -4 -4 -4 -5 -6 -6 -8 -9 -9 -9 -9 -9 -10 -11 -12
-1 -1 -1 1 -0 -1 0 1 1 -0 0 0 -1 -1 -1 -1 -1 -2 -2 -2 -2 -2 -2 -2 -3 -3 -4 -4 -4 -5 -5 -5 -6 -6 -7 -8 -9 -9 -9 -10 -11 -11 -11 -12
-1 -1 -2 -2 -1 -1 -1 1 0 -0 -0 -1 -2 -2 -1 -2 -2 -2 -2 -3 -3 -2 -4 -5 -5 -5 -5 -5 -5 -5 -5 -6 -6 -7 -8 -10 -10 -10 -10 -10 -11 -12 -12 -13
0 -1 -2 -2 -2 -3 1 0 -0 -1 -1 -1 -1 -1 -1 -2 -3 -3 -3 -4 -4 -4 -4 -6 -6 -6 -6 -6 -6 -7 -7 -7 -8 -9 -10 -10 -11 -11 -11 -11 -13 -13 -13 -14
-0 -1 -1 -2 -3 -2 -1 -1 -1 -2 -2 -2 -3 -3 -3 -3 -2 -3 -4 -5 -5 -5 -6 -7 -6 -6 -6 -7 -7 -7 -9 -9 -9 -10 -11 -11 -12 -12 -13 -13 -14 -14 -14 -14
-1 -1 -1 -2 -4 -4 -1 -1 -2 -3 -2 -3 -3 -4 -4 -4 -5 -4 -4 -5 -5 -7 -8 -7 -7 -7 -7 -7 -7 -8 -9 -11 -11 -11 -12 -13 -13 -13 -14 -14 -14 -14 -14 -14
-1 -2 -2 -2 -3 -3 -1 -2 -2 -3 -3 -4 -5 -5 -4 -5 -5 -5 -5 -5 -6 -7 -8 -7 -7 -7 -8 -8 -9 -10 -11 -11 -12 -12 -13 -14 -14 -14 -14 -14 -14 -15 -15 -15
-2 -3 -3 -3 -4 -3 -1 -2 -3 -4 -4 -5 -4 -4 -5 -6 -5 -5 -6 -8 -8 -7 -7 -7 -7 -8 -8 -9 -10 -11 -12 -12 -13 -14 -14 -14 -14 -14 -14 -14 -15 -15 -15 -15
-3 -2 -2 -3 -2 -2 -2 -4 -4 -4 -4 -4 -4 -5 -5 -6 -5 -6 -7 -8 -7 -8 -7 -7 -8 -8 -9 -10 -11 -12 -13 -13 -14 -15 -15 -14 -14 -15 -15 -15 -15 -15 -15 -16
-3 -3 -3 -3 -2 -3 -3 -4 -4 -5 -5 -5 -5 -5 -5 -7 -8 -8 -8 -8 -8 -7 -8 -8 -9 -10 -11 -12 -12 -13 -14 -14 -15 -15 -14 -14 -14 -15 -15 -15 -16 -16 -16 -16
-3 -3 -3 -4 -3 -3 -4 -4 -5 -5 -5 -6 -6 -6 -6 -9 -9 -8 -8 -8 -8 -9 -9 -10 -11 -11 -11 -12 -13 -14 -14 -15 -15 -15 -15 -15 -15 -16 -16 -16 -16 -16 -17 -17
-3 -3 -4 -4 -4 -4 -4 -5 -5 -6 -6 -6 -6 -8 -8 -9 -9 -9 -9 -9 -10 -10 -10 -11 -12 -12 -12 -13 -13 -15 -15 -15 -15 -15 -15 -15 -16 -16 -16 -16 -16 -17 -17 -17

GFSCGP_700_temp_015.txt.gz
Temp
8 7 7 7 7 7 7 6 7 7 7 7 7 8 9 9 9 8 8 8 8 7 7 6 6 5 5 4 3 3 3 3 2 3 3 2 2 2 1 1 0 0 -0 -1
7 7 7 6 7 6 6 6 6 7 6 7 7 8 9 9 8 8 8 8 8 7 6 5 6 5 4 4 3 3 3 2 2 2 2 1 1 1 0 1 -0 -1 -1 -2
7 6 6 6 6 6 6 6 6 6 6 6 7 8 7 7 7 7 7 7 6 6 5 5 5 4 3 3 3 3 2 1 1 1 1 0 1 0 -0 0 -0 -1 -1 -2
6 6 6 6 6 6 6 6 6 6 5 6 6 6 7 7 6 6 6 6 5 5 4 4 4 3 2 2 2 2 2 1 1 1 1 0 -0 -1 -1 -2 -1 -0 -1 -2
5 6 5 5 5 5 6 6 6 6 6 6 6 6 5 6 6 5 5 5 4 4 4 4 3 3 2 2 2 2 1 1 0 0 -0 -0 -1 -1 -1 -1 -1 -1 -1 -2
5 5 5 5 5 4 5 6 6 6 6 4 4 4 4 5 5 4 4 4 4 4 3 3 2 2 2 1 1 0 -0 -0 0 -0 -1 -1 -1 -1 -1 -1 -1 -1 -1 -2
5 5 4 4 4 4 4 6 5 4 2 1 5 4 4 3 3 3 3 3 3 3 2 2 2 1 1 1 -0 -1 -1 -1 -1 -1 -1 -2 -2 -2 -2 -2 -2 -2 -2 -2
4 4 4 4 4 3 3 3 3 1 -1 1 4 4 4 4 4 2 2 3 2 2 2 1 1 1 0 -0 -1 -1 -2 -2 -2 -2 -2 -2 -2 -2 -2 -2 -2 -3 -3 -3
4 4 4 3 3 3 3 3 3 2 2 0 3 4 4 4 4 3 2 2 2 1 1 1 0 -0 -1 -1 -1 -1 -1 -2 -2 -2 -2 -2 -2 -3 -3 -3 -3 -4 -4 -4
2 3 4 3 3 3 3 2 2 2 -3 -0 2 3 4 4 3 3 2 1 1 1 0 -0 -0 -0 -0 -1 -1 -2 -2 -1 -1 -2 -2 -2 -2 -3 -3 -3 -4 -4 -6 -7
2 2 4 3 3 3 3 2 1 1 1 -1 -3 1 3 3 1 0 1 1 1 1 0 0 0 -0 -1 -1 -2 -1 -2 -2 -2 -2 -3 -3 -3 -3 -3 -4 -5 -7 -8 -8
2 2 2 2 3 3 1 1 1 -0 -1 -1 -1 -1 2 1 1 1 1 1 1 0 -0 -1 -1 -2 -2 -2 -3 -3 -3 -3 -3 -3 -3 -3 -3 -3 -4 -5 -6 -9 -9 -9
1 1 1 2 2 3 2 1 0 -1 -1 -1 -2 -1 1 0 -0 -1 -1 -1 -1 -1 -2 -2 -3 -3 -3 -3 -3 -3 -3 -4 -3 -4 -4 -4 -4 -5 -6 -7 -8 -9 -9 -10
1 0 0 0 1 1 1 1 -0 -1 -2 -2 -1 -1 -1 -1 -1 -1 -2 -2 -2 -2 -2 -2 -3 -3 -3 -4 -4 -4 -4 -4 -4 -4 -5 -5 -5 -6 -7 -9 -9 -9 -9 -10
-0 -0 -0 -0 -1 -1 0 -0 1 -1 -0 -2 -0 -1 -0 -1 -2 -2 -2 -2 -3 -3 -3 -2 -3 -4 -4 -5 -5 -5 -5 -5 -5 -5 -6 -6 -7 -10 -10 -10 -10 -11 -11 -12
-1 -1 -0 -0 -0 -0 1 1 1 1 1 0 -1 -1 -1 -1 -3 -3 -3 -3 -3 -3 -3 -3 -5 -5 -5 -5 -5 -5 -5 -5 -5 -6 -7 -8 -9 -10 -10 -11 -11 -11 -11 -12
-1 -1 -2 -2 -1 -1 0 1 1 -0 -0 -1 -1 -1 -2 -3 -3 -3 -2 -3 -3 -3 -4 -5 -5 -6 -6 -6 -6 -6 -6 -6 -7 -8 -9 -10 -11 -11 -11 -12 -12 -12 -13 -13
1 -1 -2 -3 -2 -4 1 0 -0 -1 -0 -1 -1 -2 -3 -2 -3 -3 -4 -4 -4 -5 -5 -5 -6 -6 -7 -7 -7 -7 -7 -8 -9 -10 -11 -11 -12 -12 -12 -13 -13 -13 -14 -14
0 -1 -1 -2 -2 -2 -1 -0 -1 -1 -1 -2 -2 -2 -3 -4 -4 -4 -5 -5 -6 -5 -5 -7 -7 -7 -7 -7 -7 -7 -8 -9 -10 -11 -11 -12 -12 -13 -13 -14 -14 -14 -14 -14
-0 -1 -1 -2 -4 -4 -1 -1 -2 -2 -3 -2 -3 -4 -4 -5 -5 -5 -5 -6 -6 -7 -8 -7 -7 -7 -7 -7 -8 -9 -9 -10 -11 -12 -12 -13 -13 -14 -15 -14 -14 -14 -14 -14
-1 -1 -2 -2 -3 -2 -0 -1 -2 -3 -2 -4 -4 -5 -5 -5 -6 -6 -6 -6 -7 -8 -7 -7 -7 -8 -8 -8 -9 -10 -11 -12 -12 -12 -13 -14 -15 -15 -14 -14 -14 -14 -15 -15
-2 -3 -3 -3 -3 -3 -1 -2 -2 -3 -4 -4 -4 -5 -5 -5 -6 -6 -6 -8 -8 -8 -7 -7 -7 -8 -9 -9 -10 -11 -12 -12 -13 -14 -14 -15 -15 -15 -15 -15 -15 -15 -15 -15
-4 -2 -2 -3 -2 -2 -3 -3 -4 -4 -4 -4 -5 -5 -5 -6 -6 -7 -8 -8 -8 -8 -8 -8 -9 -9 -10 -11 -12 -12 -13 -14 -14 -14 -15 -16 -15 -15 -15 -15 -15 -15 -16 -16
-3 -2 -3 -3 -2 -2 -3 -4 -4 -4 -4 -5 -5 -5 -6 -6 -7 -9 -8 -8 -8 -9 -9 -10 -10 -10 -11 -12 -13 -13 -13 -14 -14 -15 -16 -15 -15 -15 -15 -15 -16 -16 -16 -17
-3 -3 -3 -3 -3 -3 -4 -3 -4 -5 -4 -5 -5 -6 -6 -8 -9 -8 -8 -8 -9 -9 -10 -10 -11 -11 -13 -13 -13 -13 -14 -15 -15 -16 -16 -16 -16 -16 -16 -16 -16 -17 -17 -17
-3 -3 -4 -3 -4 -4 -4 -4 -4 -4 -5 -6 -6 -7 -8 -9 -8 -8 -9 -9 -9 -10 -10 -11 -12 -13 -13 -14 -14 -15 -15 -15 -16 -16 -16 -16 -16 -16 -16 -16 -17 -18 -18 -18

GFSCGP_700_temp_018.txt.gz
Temp
7 7 7 7 7 6 6 6 6 7 6 7 7 7 8 9 8 8 7 7 8 7 6 5 5 5 5 4 4 3 3 3 2 2 2 1 1 1 1 1 0 0 0 -0
7 7 6 6 6 6 6 6 6 6 6 6 7 7 7 8 8 7 7 7 7 7 6 5 5 5 4 3 3 3 2 2 2 1 1 0 0 0 0 -0 -0 -1 -1 -1
6 6 6 6 6 6 6 6 6 5 6 6 6 7 7 7 7 7 6 6 5 5 4 4 4 4 4 3 2 2 1 1 1 0 -0 -1 -1 -1 -1 -1 -1 -1 -1 -2
6 5 5 6 6 6 6 5 5 6 5 6 6 6 6 6 6 6 5 5 4 4 4 4 4 4 3 2 2 1 1 0 0 -0 -0 -1 -1 -1 -1 -2 -2 -2 -2 -2
5 5 5 5 5 5 5 6 6 6 5 5 5 5 4 5 5 4 4 4 3 4 3 3 2 2 2 2 1 1 0 -0 -1 -1 -1 -2 -2 -2 -2 -1 -1 -1 -1 -1
5 5 5 5 5 5 5 6 6 5 5 4 4 4 3 4 3 3 3 3 3 3 3 2 2 2 1 1 1 0 -0 -1 -1 -1 -2 -2 -2 -2 -2 -2 -2 -2 -2 -2
5 4 4 4 4 4 4 6 5 3 1 1 4 4 2 3 3 3 2 3 3 3 2 2 2 1 1 1 -0 -1 -1 -1 -2 -3 -3 -3 -2 -2 -2 -2 -2 -2 -2 -2
4 4 4 4 3 3 3 4 3 1 -2 0 4 3 2 3 3 2 2 2 2 2 2 1 0 0 0 -1 -1 -2 -2 -3 -3 -2 -2 -2 -2 -2 -2 -2 -2 -3 -3 -3
3 4 3 3 3 3 3 3 2 2 1 0 3 3 2 3 3 2 2 2 2 1 -0 -0 -0 -0 -1 -2 -2 -3 -3 -3 -2 -2 -3 -3 -3 -3 -3 -3 -3 -3 -3 -4
3 3 4 3 3 3 3 2 2 2 -4 -1 2 3 3 1 1 1 1 1 0 -1 -1 -2 -2 -1 -1 -2 -2 -2 -2 -2 -2 -3 -3 -3 -3 -3 -3 -3 -3 -3 -4 -5
2 2 3 3 3 2 2 2 1 1 1 -3 -3 1 2 2 1 1 1 0 -0 -0 -1 -1 -1 -1 -1 -2 -2 -2 -2 -3 -3 -4 -4 -4 -4 -4 -3 -3 -3 -3 -5 -7
2 2 2 3 2 2 1 1 1 1 -0 -1 -2 -1 1 1 1 0 0 -0 -1 -1 -1 -1 -1 -2 -2 -2 -2 -2 -4 -4 -4 -5 -4 -4 -4 -4 -4 -4 -5 -6 -7 -9
1 1 1 2 2 1 0 -0 -1 -1 -2 -2 -2 -1 1 0 -1 -1 -1 -2 -2 -2 -2 -2 -2 -3 -3 -3 -4 -5 -5 -5 -5 -5 -5 -5 -5 -5 -6 -6 -7 -8 -10 -10
0 0 0 0 1 1 0 0 -1 -1 -2 -2 -2 -1 0 -1 -1 -1 -2 -3 -3 -3 -3 -3 -3 -4 -4 -6 -6 -5 -6 -6 -6 -5 -5 -6 -6 -7 -7 -8 -10 -11 -11 -11
0 -0 0 -0 0 1 1 1 0 -1 -1 -3 0 -1 -1 -1 -2 -2 -3 -3 -3 -3 -3 -4 -4 -5 -6 -5 -6 -6 -6 -6 -6 -5 -6 -7 -8 -9 -9 -10 -11 -11 -12 -12
-0 0 0 0 1 0 1 1 1 1 1 0 -0 -0 -0 -1 -2 -3 -3 -3 -3 -3 -4 -4 -5 -6 -6 -6 -6 -5 -6 -6 -6 -7 -8 -9 -10 -11 -11 -11 -12 -12 -12 -13
-0 -0 -1 -0 -0 -0 1 2 1 0 -0 -0 -1 -0 -2 -2 -2 -2 -4 -3 -4 -4 -5 -5 -6 -7 -6 -6 -6 -6 -6 -6 -7 -8 -9 -11 -11 -12 -12 -12 -13 -13 -14 -14
0 -0 -2 -2 -1 -5 1 0 -0 -1 0 -0 -0 -1 -2 -2 -3 -3 -3 -3 -5 -6 -5 -6 -7 -6 -6 -6 -6 -7 -7 -8 -9 -9 -10 -12 -12 -12 -13 -13 -13 -14 -15 -14
0 -0 -2 -2 -3 -2 -1 -0 -0 -1 -1 -1 -1 -2 -3 -3 -4 -3 -3 -4 -6 -7 -7 -7 -7 -7 -6 -7 -7 -8 -9 -9 -10 -11 -12 -12 -13 -13 -13 -14 -15 -15 -15 -15
-0 -1 -2 -3 -4 -5 -1 -1 -2 -2 -3 -2 -3 -3 -4 -4 -4 -5 -6 -5 -7 -7 -8 -7 -7 -7 -7 -8 -8 -9 -10 -10 -11 -12 -12 -13 -13 -13 -14 -15 -15 -15 -15 -15
-1 -1 -2 -2 -4 -3 -2 -2 -2 -3 -3 -4 -4 -4 -5 -5 -5 -5 -6 -6 -8 -9 -8 -8 -8 -8 -8 -9 -10 -10 -11 -12 -13 -13 -13 -14 -14 -15 -15 -15 -15 -15 -15 -15
-2 -3 -3 -3 -4 -3 -2 -2 -3 -4 -4 -4 -4 -4 -4 -4 -5 -6 -7 -8 -9 -8 -8 -8 -8 -8 -9 -10 -11 -11 -12 -13 -13 -14 -14 -14 -15 -16 -16 -16 -15 -15 -16 -16
-3 -2 -3 -4 -3 -2 -2 -3 -4 -4 -4 -4 -4 -4 -5 -5 -6 -7 -9 -9 -8 -8 -8 -8 -9 -9 -10 -11 -11 -12 -13 -14 -14 -14 -15 -15 -15 -16 -16 -16 -16 -16 -16 -16
-3 -3 -3 -3 -2 -2 -3 -3 -4 -4 -4 -5 -4 -5 -6 -6 -7 -10 -9 -9 -8 -8 -9 -9 -10 -10 -11 -12 -13 -13 -14 -14 -14 -15 -15 -15 -16 -16 -16 -16 -16 -16 -17 -17
-4 -4 -3 -4 -2 -3 -3 -4 -4 -4 -5 -5 -5 -6 -7 -7 -8 -10 -9 -9 -9 -9 -9 -10 -10 -11 -11 -12 -13 -13 -14 -15 -15 -15 -15 -16 -16 -16 -16 -16 -17 -17 -17 -18
-4 -3 -4 -4 -4 -4 -4 -5 -4 -5 -5 -6 -6 -7 -8 -11 -10 -10 -10 -9 -9 -9 -10 -11 -11 -11 -12 -13 -13 -14 -14 -15 -15 -15 -16 -16 -16 -16 -16 -17 -17 -18 -18 -18

GFSCGP_700_temp_021.txt.gz
Temp
7 7 7 7 7 7 6 6 6 6 6 7 7 7 8 8 8 7 8 8 8 7 6 5 5 5 5 5 4 3 3 2 2 1 1 1 1 0 0 -0 -0 -0 -1 -1
7 7 6 6 6 6 6 6 6 6 6 6 6 7 7 6 7 7 7 7 7 7 5 5 4 4 4 4 3 2 2 2 1 1 1 0 -0 -1 -1 -1 -1 -2 -2 -2
6 6 6 6 6 6 6 6 6 5 6 6 6 6 6 6 6 6 6 6 5 4 4 4 4 4 4 3 3 2 1 1 1 0 -0 -1 -1 -1 -2 -2 -2 -2 -2 -2
6 5 5 5 5 6 6 5 5 5 5 5 6 6 5 5 5 5 5 4 4 3 3 3 3 3 3 2 1 1 1 0 0 -0 -0 -1 -1 -2 -2 -2 -2 -2 -2 -1
5 5 5 5 5 5 5 5 5 6 5 5 5 5 3 5 5 4 4 4 3 3 3 3 3 2 2 1 1 1 1 0 -0 -0 -1 -1 -2 -2 -2 -2 -2 -2 -2 -1
5 5 5 5 4 4 4 5 5 5 4 4 4 4 3 3 3 3 3 3 3 2 2 2 2 2 1 1 1 1 0 -0 -0 -1 -2 -2 -2 -2 -2 -2 -3 -3 -2 -2
4 4 4 4 4 4 4 5 4 5 4 5 4 4 1 2 2 2 2 2 2 2 2 2 1 1 1 1 1 0 -0 -1 -2 -2 -2 -2 -3 -3 -4 -3 -3 -3 -3 -3
4 4 4 4 4 4 3 4 3 3 3 2 3 2 1 2 2 1 2 2 2 1 1 0 0 0 -0 -0 -0 -0 -1 -2 -2 -3 -3 -4 -5 -4 -4 -3 -3 -3 -3 -3
3 4 3 3 3 3 3 3 3 2 1 1 2 2 1 2 2 2 1 1 1 1 0 -0 -0 -1 -1 -1 -2 -2 -2 -2 -2 -3 -4 -4 -4 -4 -4 -4 -4 -4 -4 -4
3 3 3 3 2 2 2 2 2 2 1 1 2 1 2 2 1 0 1 1 0 -0 -1 -1 -2 -2 -2 -2 -2 -3 -3 -3 -4 -4 -4 -5 -5 -5 -4 -4 -4 -4 -4 -4
3 3 3 3 2 2 2 2 1 1 0 0 -1 2 2 1 1 0 0 -0 -1 -2 -2 -2 -2 -2 -3 -3 -3 -3 -3 -3 -4 -5 -5 -5 -4 -4 -4 -5 -5 -5 -6 -7
3 3 3 2 2 1 1 1 1 1 -0 -0 -1 -0 1 2 1 0 -0 -1 -1 -2 -2 -2 -2 -2 -2 -3 -3 -3 -3 -4 -5 -5 -5 -4 -5 -5 -6 -5 -6 -7 -8 -9
2 2 2 2 1 0 0 0 -0 -1 -2 -2 -2 0 1 1 -0 -1 -1 -1 -2 -3 -3 -2 -2 -3 -3 -3 -3 -4 -5 -6 -5 -5 -5 -5 -6 -6 -7 -8 -8 -9 -10 -11
1 1 1 1 1 0 0 0 -1 -2 -2 -2 -1 -0 2 0 -1 -1 -2 -2 -3 -3 -3 -3 -3 -3 -4 -4 -5 -6 -5 -5 -5 -5 -5 -6 -6 -8 -9 -10 -10 -11 -11 -12
1 1 1 1 1 1 1 1 0 -1 -0 -3 1 -0 1 -1 -2 -1 -2 -2 -2 -3 -3 -4 -4 -4 -5 -6 -6 -5 -5 -5 -5 -6 -6 -7 -8 -9 -10 -11 -11 -12 -12 -12
1 0 0 1 1 1 1 2 1 0 0 -1 -1 -0 -1 -1 -1 -2 -3 -3 -4 -4 -4 -4 -4 -4 -6 -6 -6 -6 -5 -6 -6 -7 -8 -9 -10 -11 -12 -12 -12 -13 -13 -14
1 0 -0 -0 -0 0 1 2 2 1 0 -0 -1 -0 -1 -1 -2 -3 -3 -3 -3 -4 -3 -4 -5 -6 -7 -6 -6 -6 -6 -7 -8 -9 -10 -10 -11 -12 -12 -12 -13 -13 -14 -15
1 -0 -1 -1 -1 -2 1 0 -0 -1 0 -1 -1 -1 -2 -2 -2 -2 -3 -3 -4 -4 -5 -6 -6 -7 -7 -7 -7 -7 -8 -8 -9 -10 -11 -12 -12 -13 -13 -13 -14 -14 -15 -15
1 -0 -1 -3 -4 -2 -1 -0 -1 -2 -2 -1 -2 -2 -2 -2 -3 -4 -4 -5 -5 -6 -6 -8 -8 -7 -7 -8 -8 -8 -9 -9 -10 -11 -12 -13 -13 -14 -14 -15 -15 -15 -15 -15
-0 -1 -2 -4 -4 -3 -1 -1 -2 -2 -2 -2 -3 -3 -4 -4 -4 -4 -5 -5 -5 -7 -9 -8 -8 -8 -8 -8 -9 -9 -9 -10 -11 -12 -13 -14 -14 -14 -15 -15 -15 -15 -16 -16
-1 -1 -2 -3 -4 -3 -2 -2 -2 -3 -3 -4 -4 -4 -4 -5 -5 -5 -5 -6 -7 -9 -9 -8 -8 -8 -9 -9 -9 -9 -10 -11 -12 -13 -14 -14 -15 -15 -15 -15 -16 -16 -16 -16
-2 -2 -3 -4 -4 -3 -2 -3 -4 -4 -4 -4 -4 -4 -5 -5 -6 -5 -7 -8 -9 -9 -9 -8 -8 -9 -9 -10 -10 -10 -11 -12 -13 -14 -15 -15 -15 -15 -15 -16 -16 -16 -16 -16
-3 -2 -3 -4 -3 -2 -3 -4 -4 -4 -4 -4 -4 -5 -5 -5 -5 -6 -7 -8 -9 -9 -9 -9 -9 -9 -10 -11 -11 -12 -12 -13 -14 -15 -15 -15 -15 -16 -16 -16 -16 -16 -16 -16
-3 -3 -4 -4 -2 -3 -4 -4 -4 -4 -4 -5 -5 -5 -6 -6 -7 -7 -8 -9 -10 -9 -9 -9 -9 -9 -10 -11 -12 -13 -13 -14 -14 -15 -15 -15 -16 -16 -16 -16 -16 -17 -17 -17
-3 -4 -4 -3 -2 -4 -3 -4 -4 -5 -5 -6 -6 -6 -7 -7 -8 -9 -9 -9 -9 -9 -9 -10 -10 -10 -11 -12 -13 -14 -14 -14 -14 -15 -15 -15 -16 -16 -16 -16 -17 -17 -17 -17
-2 -3 -4 -4 -3 -4 -5 -4 -6 -5 -6 -6 -7 -8 -8 -8 -9 -9 -9 -9 -10 -10 -10 -11 -11 -11 -11 -12 -13 -14 -14 -14 -15 -15 -15 -16 -16 -16 -16 -16 -17 -18 -18 -18

GFSCGP_700_temp_024.txt.gz
Temp
7 8 7 7 8 8 7 7 7 6 6 6 6 6 7 7 7 7 7 7 7 7 6 5 5 5 5 4 4 3 3 3 2 2 1 1 1 0 0 -0 -0 -1 -1 -1
7 7 7 7 7 7 6 6 6 6 6 6 6 6 6 6 6 7 7 7 6 6 5 5 5 4 4 4 4 3 3 2 2 1 1 1 0 -0 -0 -1 -1 -1 -2 -2
7 6 6 6 6 6 6 6 5 5 5 6 5 6 5 6 6 6 6 6 5 5 5 4 4 4 4 4 3 3 2 2 1 1 1 0 -0 -0 -1 -1 -2 -2 -2 -2
6 6 6 5 5 6 6 5 5 5 5 9 6 9 5 4 4 5 5 5 5 4 4 4 4 4 3 3 2 2 1 1 1 1 0 -0 -1 -1 -1 -1 -1 -2 -2 -2
6 5 5 5 5 5 4 5 5 6 5 6 6 8 5 4 3 3 4 4 3 3 3 3 3 2 2 1 1 1 1 1 0 0 -0 -1 -1 -2 -2 -2 -2 -2 -2 -2
6 5 5 5 5 5 5 5 5 5 5 7 6 6 6 5 2 2 3 3 3 2 2 2 2 2 1 1 1 1 0 0 -0 -0 -1 -1 -2 -2 -2 -2 -2 -3 -3 -3
4 4 5 5 4 4 4 5 7 7 7 8 4 5 4 1 2 2 2 2 2 2 2 2 1 1 1 1 0 0 -0 -0 -1 -1 -1 -1 -2 -2 -3 -3 -4 -4 -4 -3
5 5 4 4 4 4 3 4 5 5 7 7 4 6 4 2 2 2 2 2 2 1 1 1 1 1 0 -0 -1 -1 -1 -1 -1 -2 -2 -2 -3 -3 -4 -4 -4 -4 -4 -4
4 4 4 4 4 4 3 3 3 2 2 3 5 3 1 2 2 2 1 1 1 1 1 1 -1 -1 -2 -2 -2 -2 -2 -2 -2 -2 -3 -3 -4 -4 -4 -4 -4 -4 -4 -4
4 3 3 3 3 3 3 3 3 3 3 4 7 5 6 3 1 1 1 0 0 0 -0 -1 -2 -2 -2 -2 -2 -2 -2 -2 -2 -2 -3 -4 -4 -4 -4 -4 -4 -5 -5 -6
4 4 3 3 2 2 2 2 2 2 2 3 3 6 3 2 1 1 0 0 -0 -0 -1 -2 -2 -2 -2 -2 -2 -2 -3 -3 -3 -4 -4 -4 -4 -5 -5 -5 -6 -6 -7 -8
3 3 2 2 2 2 2 1 1 2 2 1 1 2 2 1 1 1 -0 -0 -1 -2 -3 -2 -2 -3 -3 -3 -3 -3 -4 -4 -5 -5 -5 -5 -5 -5 -6 -6 -8 -9 -10 -10
3 2 3 2 1 1 1 0 1 0 -0 -0 0 2 1 1 0 -1 -1 -1 -1 -2 -2 -2 -3 -3 -3 -3 -3 -4 -5 -5 -5 -5 -5 -5 -5 -6 -7 -8 -9 -10 -10 -11
3 2 2 3 3 1 0 0 -1 -1 -1 0 1 1 1 1 0 -1 -1 -1 -2 -2 -3 -3 -3 -4 -4 -4 -5 -6 -6 -6 -5 -5 -6 -6 -6 -7 -9 -10 -10 -11 -12 -13
2 2 2 2 2 1 -0 0 -0 -1 -1 -1 0 1 1 -0 -1 -1 -1 -2 -2 -3 -4 -4 -4 -5 -5 -5 -6 -6 -6 -6 -6 -6 -6 -7 -8 -9 -10 -12 -12 -12 -12 -13
2 1 2 2 2 2 1 1 -1 -1 -1 -1 -1 -1 -1 -1 -1 -1 -2 -2 -3 -4 -4 -4 -5 -5 -6 -6 -6 -6 -6 -6 -7 -7 -8 -9 -10 -11 -12 -12 -13 -13 -13 -14
1 1 0 0 1 0 0 1 1 0 -1 -2 -1 -1 -2 -2 -3 -3 -3 -3 -4 -4 -5 -5 -6 -6 -7 -7 -6 -6 -7 -7 -8 -9 -9 -10 -11 -12 -13 -13 -14 -14 -14 -15
1 0 -1 -1 -1 -0 0 0 -0 -0 -0 -1 -2 -2 -2 -2 -3 -3 -4 -4 -4 -4 -5 -5 -6 -7 -8 -7 -7 -7 -8 -8 -9 -9 -11 -11 -12 -13 -14 -14 -14 -15 -15 -15
1 0 -1 -2 -3 -1 -0 -1 -1 -2 -1 -2 -2 -2 -2 -3 -4 -4 -4 -4 -4 -5 -5 -6 -7 -8 -8 -8 -8 -8 -9 -9 -10 -11 -11 -12 -13 -14 -14 -14 -15 -15 -15 -15
0 -1 -2 -3 -3 -1 -0 -2 -2 -2 -2 -3 -3 -3 -3 -3 -4 -4 -4 -5 -5 -6 -7 -8 -9 -9 -8 -8 -8 -9 -10 -10 -11 -11 -12 -13 -14 -15 -15 -15 -15 -15 -16 -16
-0 -1 -2 -4 -4 -3 -2 -2 -2 -3 -3 -4 -4 -4 -5 -4 -5 -5 -6 -5 -6 -7 -9 -8 -9 -9 -9 -9 -9 -10 -10 -11 -11 -12 -13 -14 -15 -15 -15 -15 -15 -15 -16 -16
-1 -2 -2 -3 -4 -4 -2 -3 -4 -4 -4 -4 -4 -5 -5 -5 -5 -6 -6 -7 -8 -8 -8 -9 -9 -9 -9 -9 -10 -10 -11 -12 -12 -13 -14 -15 -15 -15 -15 -16 -16 -16 -16 -16
-3 -2 -2 -3 -2 -3 -3 -3 -4 -4 -4 -5 -4 -5 -5 -6 -6 -7 -8 -9 -9 -9 -9 -9 -10 -10 -10 -10 -11 -11 -12 -12 -13 -13 -14 -15 -15 -15 -16 -16 -16 -16 -16 -16
-3 -3 -4 -4 -2 -4 -4 -4 -3 -4 -5 -5 -6 -6 -7 -7 -8 -8 -8 -9 -9 -9 -9 -9 -10 -10 -11 -11 -11 -12 -12 -13 -14 -14 -14 -15 -15 -16 -16 -16 -16 -16 -17 -17
-4 -4 -4 -4 -3 -4 -4 -4 -4 -5 -5 -6 -6 -7 -7 -9 -9 -9 -9 -9 -9 -10 -10 -11 -11 -12 -12 -12 -12 -13 -13 -13 -14 -14 -15 -15 -15 -16 -16 -16 -16 -17 -17 -17
-3 -4 -4 -4 -4 -4 -4 -4 -5 -6 -6 -7 -7 -7 -9 -9 -9 -10 -10 -10 -10 -10 -11 -12 -12 -12 -13 -13 -13 -14 -14 -14 -14 -14 -15 -15 -16 -16 -16 -16 -16 -16 -17 -17